Hot Springs, AR

4:01 PM CST on February 25, 2018 (GMT -0600)
Hot Springs Memorial

Weather History for KHOT - December, 2012

Change the Weather History Date:

Friday, December 7, 2012

  Actual Average Record
Temperature  
Mean Temperature 57 °F -  
Max Temperature 62 °F 53 °F 76 °F (1956)
Min Temperature 53 °F 35 °F 9 °F (1950)
Degree Days  
Heating Degree Days 8    
Growing Degree Days 7 (Base 50)    
Moisture  
Dew Point 54 °F    
Average Humidity 88    
Maximum Humidity 94    
Minimum Humidity 80    
Precipitation  
Precipitation 0.00 in - - ()
Sea Level Pressure  
Sea Level Pressure 29.89 in    
Wind  
Wind Speed 2 mph (SSE)    
Max Wind Speed 7 mph    
Max Gust Speed -    
Visibility 8 miles    
Events      
Averages and records for this station are not official NWS values.
T = Trace of Precipitation, MM = Missing Value Source: NWS Daily Summary

Daily Weather History Graph

Daily Weather History Graph

Search for Another Location

Airport or City:

Trip Planner

Search our weather history database for the weather conditions in past years. The results will help you decide how hot, cold, wet, or windy it might be!

Date:

Astronomy

Dec. 07, 2012 Rise Set
Actual Time 7:06 AM CST 5:01 PM CST
Civil Twilight 6:38 AM CST 5:29 PM CST
Nautical Twilight 6:07 AM CST 6:01 PM CST
Astronomical Twilight 5:36 AM CST 6:31 PM CST
Moon 12:40 AM CST (12/7) 12:46 PM CST (12/7)
Length of Visible Light 10h 51m
Length of Day
9h 55m
Last Quarter, 38% of the Moon is Illuminated
Dec 7
Last Quarter
Dec 13
New
Dec 19
First Quarter
Dec 28
Full
Jan 4
Last Quarter

Hourly Weather History & Observations

Time (CST) Temp. Dew Point Humidity Pressure Visibility Wind Dir Wind Speed Gust Speed Precip Events Conditions
12:36 AM 53.6 °F 51.8 °F 94% 29.93 in 9.0 mi West 3.5 mph - N/A   Mostly Cloudy
12:53 AM 54.0 °F 52.0 °F 93% 29.91 in 9.0 mi Calm Calm - N/A   Mostly Cloudy
1:34 AM 53.6 °F 51.8 °F 94% 29.92 in 8.0 mi West 3.5 mph - N/A   Mostly Cloudy
1:45 AM 55.4 °F 51.8 °F 88% 29.92 in 9.0 mi Calm Calm - N/A   Overcast
1:53 AM 55.0 °F 53.1 °F 93% 29.91 in 9.0 mi Calm Calm - N/A   Overcast
2:53 AM 55.0 °F 53.1 °F 93% 29.91 in 10.0 mi Calm Calm - N/A   Overcast
3:53 AM 55.0 °F 52.0 °F 89% 29.90 in 10.0 mi Calm Calm - N/A   Overcast
4:41 AM 55.4 °F 51.8 °F 88% 29.91 in 10.0 mi Calm Calm - N/A   Overcast
4:53 AM 55.0 °F 53.1 °F 93% 29.90 in 10.0 mi Calm Calm - N/A   Overcast
5:08 AM 55.4 °F 53.6 °F 94% 29.90 in 10.0 mi Calm Calm - N/A   Overcast
5:53 AM 55.0 °F 53.1 °F 93% 29.90 in 10.0 mi Calm Calm - N/A   Overcast
6:04 AM 55.4 °F 53.6 °F 94% 29.91 in 10.0 mi Calm Calm - N/A   Overcast
6:23 AM 55.4 °F 53.6 °F 94% 29.92 in 10.0 mi Calm Calm - N/A   Overcast
6:53 AM 55.9 °F 53.1 °F 90% 29.91 in 10.0 mi Calm Calm - N/A   Overcast
7:53 AM 55.9 °F 53.1 °F 90% 29.92 in 6.0 mi SSE 4.6 mph - N/A   Overcast
8:53 AM 55.9 °F 53.1 °F 90% 29.93 in 6.0 mi South 3.5 mph - N/A   Overcast
9:06 AM 55.4 °F 53.6 °F 94% 29.94 in 6.0 mi Variable 3.5 mph - N/A   Overcast
9:53 AM 55.9 °F 53.1 °F 90% 29.93 in 7.0 mi Calm Calm - N/A   Overcast
10:06 AM 57.2 °F 53.6 °F 88% 29.93 in 6.0 mi South 3.5 mph - N/A   Overcast
10:29 AM 57.2 °F 53.6 °F 88% 29.93 in 6.0 mi SSE 4.6 mph - N/A   Overcast
10:39 AM 57.2 °F 53.6 °F 88% 29.93 in 7.0 mi Variable 3.5 mph - N/A   Overcast
10:53 AM 57.9 °F 54.0 °F 87% 29.92 in 7.0 mi South 5.8 mph - N/A   Overcast
11:16 AM 57.2 °F 53.6 °F 88% 29.91 in 5.0 mi South 4.6 mph - N/A   Overcast
11:38 AM 57.2 °F 53.6 °F 88% 29.90 in 9.0 mi Calm Calm - N/A   Overcast
11:53 AM 59.0 °F 53.1 °F 81% 29.89 in 10.0 mi South 3.5 mph - N/A   Overcast
12:53 PM 60.1 °F 54.0 °F 80% 29.86 in 10.0 mi South 6.9 mph - N/A   Overcast
1:35 PM 59.0 °F 53.6 °F 82% 29.85 in 8.0 mi SSE 3.5 mph - N/A   Overcast
1:53 PM 59.0 °F 54.0 °F 83% 29.84 in 7.0 mi South 3.5 mph - N/A   Overcast
2:53 PM 59.0 °F 55.0 °F 87% 29.83 in 7.0 mi South 5.8 mph - N/A   Overcast
3:53 PM 60.1 °F 55.0 °F 83% 29.83 in 7.0 mi South 3.5 mph - N/A   Overcast
4:53 PM 60.1 °F 55.0 °F 83% 29.84 in 7.0 mi Calm Calm - N/A   Overcast
5:53 PM 60.1 °F 55.9 °F 86% 29.85 in 8.0 mi Calm Calm - N/A   Overcast
6:39 PM 60.8 °F 55.4 °F 82% 29.86 in 9.0 mi Calm Calm - N/A   Overcast
6:53 PM 60.8 °F 55.4 °F 82% 29.86 in 9.0 mi ENE 3.5 mph - N/A   Overcast
7:53 PM 60.1 °F 55.9 °F 86% 29.86 in 9.0 mi East 3.5 mph - N/A   Overcast
8:53 PM 60.1 °F 55.9 °F 86% 29.86 in 7.0 mi East 4.6 mph - N/A   Overcast
9:23 PM 60.8 °F 55.4 °F 82% 29.87 in 8.0 mi ESE 3.5 mph - N/A   Overcast
9:53 PM 60.8 °F 55.4 °F 82% 29.87 in 8.0 mi ESE 4.6 mph - N/A   Overcast
10:53 PM 61.0 °F 57.0 °F 87% 29.86 in 10.0 mi SSE 3.5 mph - N/A   Overcast
11:53 PM 62.1 °F 57.9 °F 86% 29.86 in 10.0 mi Calm Calm - N/A   Overcast